DW0494 Thessaloniki GR current weather conditions

sailwx.info

Wind from 257

Air temperature 8.3° C
Dewpoint 4.5° C

Last reported at 2019-Dec-06 15:04 UTC.
Time now 2019-Dec-06 15:59 UTC

Location: N 40°35' E 022°60'.
View on Google Maps.

See reports from other nearby stations

  
Tides and Currents Weather Stations Pressure Air Temp Water Temp Dewpoint Dewpoint Depression Visibility Wind Speed Wind Dir Waves Ship Positions
date/time (UTC)wind fromknots sea level pressurealtimeterstation pressurevisibilityair tempwater tempwave heightnotes
2019-Dec-06 15:04 257 8.3
2019-Dec-06 14:59 257 8.3
2019-Dec-06 14:54 259 0 gusting 2 8.3
2019-Dec-06 14:49 245 0 gusting 1 8.3
2019-Dec-06 14:44 273 8.3
2019-Dec-06 14:39 251 8.9
2019-Dec-06 14:34 274 8.9
2019-Dec-06 14:29 274 8.9
2019-Dec-06 14:24 274 8.9
2019-Dec-06 14:19 274 8.9
2019-Dec-06 14:14 274 0 gusting 1 9.4
2019-Dec-06 14:09 257 9.4
2019-Dec-06 14:04 307 9.4
2019-Dec-06 13:59 299 9.4
2019-Dec-06 13:54 266 0 gusting 2 9.4
2019-Dec-06 13:49 251 9.4
2019-Dec-06 13:44 272 1 gusting 2 9.4
2019-Dec-06 13:39 293 0 gusting 2 9.4
2019-Dec-06 13:34 356 0 gusting 2 9.4
2019-Dec-06 13:29 275 0 gusting 1 9.4
2019-Dec-06 13:24 271 0 gusting 1 9.4
2019-Dec-06 13:19 263 0 gusting 1 9.4
2019-Dec-06 13:14 247 9.4
2019-Dec-06 13:09 257 0 gusting 4 10.0
2019-Dec-06 13:04 021 0 gusting 4 10.0
2019-Dec-06 12:59 241 1 gusting 4 10.0
2019-Dec-06 12:54 253 10.0
2019-Dec-06 12:49 308 10.6
2019-Dec-06 12:44 021 0 gusting 1 10.0
2019-Dec-06 12:39 009 10.6
2019-Dec-06 12:34 324 0 gusting 2 10.0
2019-Dec-06 12:29 010 0 gusting 2 10.0
2019-Dec-06 12:24 345 0 gusting 2 10.0
2019-Dec-06 12:19 238 0 gusting 2 10.0
2019-Dec-06 12:14 252 1 gusting 2 10.0
2019-Dec-06 12:09 278 0 gusting 2 10.0
2019-Dec-06 12:04 270 0 gusting 2 10.0
2019-Dec-06 11:59 242 0 gusting 2 10.0
2019-Dec-06 11:54 258 0 gusting 2 10.0
2019-Dec-06 11:49 233 0 gusting 2 10.0
2019-Dec-06 11:44 270 0 gusting 4 10.0
2019-Dec-06 11:39 231 0 gusting 4 10.0
2019-Dec-06 11:34 245 0 gusting 4 10.0
2019-Dec-06 11:29 235 1 gusting 5 10.0
2019-Dec-06 11:24 257 1 gusting 5 10.0
2019-Dec-06 11:19 265 1 gusting 2 10.0
2019-Dec-06 11:14 263 0 gusting 2 10.0
2019-Dec-06 11:09 304 1 gusting 2 10.0
2019-Dec-06 11:04 282 0 gusting 4 10.0
2019-Dec-06 10:59 245 0 gusting 4 10.0
2019-Dec-06 10:54 277 1 gusting 2 10.0
2019-Dec-06 10:49 294 0 gusting 2 10.0
2019-Dec-06 10:44 255 0 gusting 2 10.6
2019-Dec-06 10:39 019 0 gusting 2 10.6
2019-Dec-06 10:34 269 0 gusting 2 10.6
2019-Dec-06 10:29 258 10.6
2019-Dec-06 10:24 239 0 gusting 2 10.6
2019-Dec-06 10:19 322 0 gusting 2 10.6
2019-Dec-06 10:14 239 0 gusting 2 10.0
2019-Dec-06 10:09 011 0 gusting 2 10.0
2019-Dec-06 10:04 267 10.0
2019-Dec-06 09:59 232 0 gusting 2 10.0
2019-Dec-06 09:54 307 10.0
2019-Dec-06 09:49 269 0 gusting 2 10.0
2019-Dec-06 09:44 347 0 gusting 1 10.0
2019-Dec-06 09:39 277 10.0
2019-Dec-06 09:34 242 0 gusting 1 10.0
2019-Dec-06 09:29 232 9.4
2019-Dec-06 09:24 262 0 gusting 2 9.4
2019-Dec-06 09:19 272 9.4
2019-Dec-06 09:14 265 0 gusting 2 9.4
2019-Dec-06 09:09 288 9.4
2019-Dec-06 09:04 260 0 gusting 2 9.4
2019-Dec-06 08:59 242 9.4
2019-Dec-06 08:54 278 9.4
2019-Dec-06 08:49 271 0 gusting 2 9.4
2019-Dec-06 08:44 264 9.4
2019-Dec-06 08:39 287 0 gusting 2 9.4
2019-Dec-06 08:34 241 0 gusting 2 9.4
2019-Dec-06 08:29 290 0 gusting 1 9.4
2019-Dec-06 08:24 321 9.4
2019-Dec-06 08:19 298 9.4
2019-Dec-06 08:14 268 8.9
2019-Dec-06 08:09 290 8.9
2019-Dec-06 08:04 293 8.9
2019-Dec-06 07:59 293 8.9
2019-Dec-06 07:54 293 8.9
2019-Dec-06 07:49 003 8.9
2019-Dec-06 07:44 004 8.3
2019-Dec-06 07:39 004 8.3
2019-Dec-06 07:34 004 8.3
2019-Dec-06 07:29 004 8.3
2019-Dec-06 07:24 038 8.3
2019-Dec-06 07:19 039 8.3
2019-Dec-06 07:14 040 8.3
2019-Dec-06 07:09 040 8.3
2019-Dec-06 07:04 040 7.8
2019-Dec-06 06:59 040 7.8
2019-Dec-06 06:54 040 7.8
2019-Dec-06 06:49 040 7.8
2019-Dec-06 06:44 040 7.8
2019-Dec-06 06:39 040 7.8
2019-Dec-06 06:34 040 7.8
2019-Dec-06 06:29 040 7.8
2019-Dec-06 06:24 040 7.2
2019-Dec-06 06:19 040 7.2
2019-Dec-06 06:14 040 7.2
2019-Dec-06 06:09 040 7.2
2019-Dec-06 06:04 040 7.2
2019-Dec-06 05:59 040 7.2
2019-Dec-06 05:54 040 7.2
2019-Dec-06 05:49 040 7.2
2019-Dec-06 05:44 040 7.2
2019-Dec-06 05:39 040 7.2
2019-Dec-06 05:34 040 7.2
2019-Dec-06 05:29 040 7.2
2019-Dec-06 05:24 040 7.2
2019-Dec-06 05:19 040 7.2
2019-Dec-06 05:14 040 7.2
2019-Dec-06 05:09 040 7.2
2019-Dec-06 05:04 040 7.2
2019-Dec-06 04:59 040 7.2
2019-Dec-06 04:54 040 7.2
2019-Dec-06 04:49 040 7.2
2019-Dec-06 04:44 040 7.2
2019-Dec-06 04:39 040 7.2
2019-Dec-06 04:34 040 7.2
2019-Dec-06 04:29 040 7.2
2019-Dec-06 04:24 040 7.2
2019-Dec-06 04:19 040 7.2
2019-Dec-06 04:14 040 7.2
2019-Dec-06 04:09 040 7.2
2019-Dec-06 04:04 040 7.2
2019-Dec-06 03:59 039 7.2
2019-Dec-06 03:54 039 7.2
2019-Dec-06 03:49 039 7.2
2019-Dec-06 03:44 039 7.2
2019-Dec-06 03:39 039 7.2
2019-Dec-06 03:34 039 7.2
2019-Dec-06 03:29 040 7.2
2019-Dec-06 03:24 039 7.2
2019-Dec-06 03:19 040 7.2
2019-Dec-06 03:14 039 7.2
2019-Dec-06 03:09 039 7.2
2019-Dec-06 03:04 039 7.2
2019-Dec-06 02:59 040 7.2
2019-Dec-06 02:54 040 6.7
2019-Dec-06 02:49 040 6.7
2019-Dec-06 02:44 040 6.7
2019-Dec-06 02:39 040 6.7
2019-Dec-06 02:34 040 6.7
2019-Dec-06 02:29 040 6.7
2019-Dec-06 02:24 040 6.7
2019-Dec-06 02:19 040 6.7
2019-Dec-06 02:14 039 6.7
2019-Dec-06 02:09 039 6.7
2019-Dec-06 02:04 039 6.7
2019-Dec-06 01:59 039 6.7
2019-Dec-06 01:54 040 6.7
2019-Dec-06 01:49 040 6.7
2019-Dec-06 01:44 039 6.7
2019-Dec-06 01:39 039 6.7
2019-Dec-06 01:34 039 7.2
2019-Dec-06 01:29 039 7.2
2019-Dec-06 01:24 039 6.7
2019-Dec-06 01:19 039 6.7
2019-Dec-06 01:14 039 6.7
2019-Dec-06 01:09 040 6.7
2019-Dec-06 01:04 040 6.7
2019-Dec-06 00:59 040 6.7
2019-Dec-06 00:54 040 7.2
2019-Dec-06 00:49 039 7.2
2019-Dec-06 00:44 039 7.2
2019-Dec-06 00:39 039 7.2
2019-Dec-06 00:34 039 7.2
2019-Dec-06 00:29 039 7.2
2019-Dec-06 00:24 039 7.2
2019-Dec-06 00:19 039 7.2
2019-Dec-06 00:14 039 7.2
2019-Dec-06 00:09 039 6.7
2019-Dec-06 00:04 040 7.2
2019-Dec-05 23:59 040 6.7
2019-Dec-05 23:54 040 6.7
2019-Dec-05 23:49 040 6.7
2019-Dec-05 23:44 040 6.7
2019-Dec-05 23:39 040 6.7
2019-Dec-05 23:34 040 6.7
2019-Dec-05 23:29 040 6.7
2019-Dec-05 23:24 040 6.1
2019-Dec-05 23:19 040 6.1
2019-Dec-05 23:14 040 6.1
2019-Dec-05 23:09 040 6.1
2019-Dec-05 23:04 037 6.7
2019-Dec-05 22:59 037 6.7
2019-Dec-05 22:54 037 6.7
2019-Dec-05 22:49 036 6.7
2019-Dec-05 22:44 036 6.7
2019-Dec-05 22:39 037 6.7
2019-Dec-05 22:34 037 6.7
2019-Dec-05 22:29 036 6.7
2019-Dec-05 22:24 036 6.7
2019-Dec-05 22:19 037 0 gusting 1 6.7
2019-Dec-05 22:14 036 0 gusting 1 6.7
2019-Dec-05 22:09 038 0 gusting 1 6.7
2019-Dec-05 22:04 051 6.7
2019-Dec-05 21:59 052 6.7
2019-Dec-05 21:54 053 6.7
2019-Dec-05 21:49 053 6.7
2019-Dec-05 21:44 053 6.7
2019-Dec-05 21:39 068 0 gusting 1 6.7
2019-Dec-05 21:34 041 0 gusting 1 6.7
2019-Dec-05 21:29 043 6.7
2019-Dec-05 21:24 042 6.7
2019-Dec-05 21:19 046 0 gusting 1 6.7
2019-Dec-05 21:14 043 0 gusting 1 6.7
2019-Dec-05 21:09 038 0 gusting 2 6.7
2019-Dec-05 21:04 043 0 gusting 2 6.7
2019-Dec-05 20:59 049 0 gusting 2 6.7
2019-Dec-05 20:54 048 0 gusting 2 6.7
2019-Dec-05 20:49 058 6.7
2019-Dec-05 20:44 059 6.7
2019-Dec-05 20:39 056 6.7
2019-Dec-05 20:34 056 6.7
2019-Dec-05 20:29 056 7.2
2019-Dec-05 20:24 056 7.2
2019-Dec-05 20:19 056 7.2
2019-Dec-05 20:14 056 7.2
2019-Dec-05 20:09 056 7.2
2019-Dec-05 20:04 056 7.2
2019-Dec-05 19:59 056 7.2
2019-Dec-05 19:54 056 7.2
2019-Dec-05 19:49 056 7.2
2019-Dec-05 19:44 056 7.2
2019-Dec-05 19:39 056 6.7
2019-Dec-05 19:34 056 7.2
2019-Dec-05 19:29 056 6.7
2019-Dec-05 19:24 056 7.2
2019-Dec-05 19:19 056 7.2
2019-Dec-05 19:14 055 7.2
2019-Dec-05 19:09 055 7.2
2019-Dec-05 19:04 055 7.2
2019-Dec-05 18:59 055 7.2
2019-Dec-05 18:54 055 7.2
2019-Dec-05 18:49 056 7.2
2019-Dec-05 18:44 056 7.2
2019-Dec-05 18:39 056 7.2
2019-Dec-05 18:34 054 7.2
2019-Dec-05 18:29 054 7.2
2019-Dec-05 18:24 054 7.2
2019-Dec-05 18:19 054 7.2
2019-Dec-05 18:14 054 7.2
2019-Dec-05 18:09 054 7.2
2019-Dec-05 18:04 051 7.2
2019-Dec-05 17:59 053 7.2
2019-Dec-05 17:54 065 0 gusting 1 7.2
2019-Dec-05 17:49 054 0 gusting 1 7.2
2019-Dec-05 17:44 049 7.2
2019-Dec-05 17:39 072 0 gusting 1 7.2
2019-Dec-05 17:34 075 0 gusting 1 7.2
2019-Dec-05 17:29 037 7.2
2019-Dec-05 17:24 036 0 gusting 2 7.2
2019-Dec-05 17:19 044 0 gusting 2 7.2
2019-Dec-05 17:14 049 0 gusting 1 7.2
2019-Dec-05 17:09 049 0 gusting 1 7.2
2019-Dec-05 17:04 060 0 gusting 2 7.2
2019-Dec-05 16:59 039 0 gusting 2 7.2
2019-Dec-05 16:54 040 0 gusting 2 7.2
2019-Dec-05 16:49 041 0 gusting 2 7.2
2019-Dec-05 16:44 044 1 gusting 2 7.2
2019-Dec-05 16:39 036 0 gusting 2 7.2
2019-Dec-05 16:34 038 0 gusting 2 7.2
2019-Dec-05 16:29 039 0 gusting 2 7.2
2019-Dec-05 16:24 040 1 gusting 2 7.2
2019-Dec-05 16:19 049 1 gusting 2 7.2
2019-Dec-05 16:14 048 1 gusting 2 7.2
2019-Dec-05 16:09 048 1 gusting 2 7.2
2019-Dec-05 16:04 059 1 gusting 2 7.2
2019-Dec-05 15:59 047 1 gusting 2 7.2
2019-Dec-05 15:54 042 0 gusting 2 7.2
2019-Dec-05 15:49 050 1 gusting 2 7.2
2019-Dec-05 15:44 038 0 gusting 1 7.2
2019-Dec-05 15:39 049 0 gusting 1 7.2
2019-Dec-05 15:34 047 7.2
2019-Dec-05 15:29 047 7.2
2019-Dec-05 15:24 038 0 gusting 1 7.2
2019-Dec-05 15:19 071 7.2
2019-Dec-05 15:14 046 0 gusting 2 7.2
2019-Dec-05 15:09 042 0 gusting 2 7.2
2019-Dec-05 15:04 063 0 gusting 1 7.8
2019-Dec-05 14:59 038 0 gusting 2 7.8
2019-Dec-05 14:54 051 0 gusting 2 7.8
2019-Dec-05 14:49 045 1 gusting 2 7.8
2019-Dec-05 14:44 035 0 gusting 2 7.8
2019-Dec-05 14:39 022 0 gusting 2 7.8
2019-Dec-05 14:34 037 0 gusting 2 8.3
2019-Dec-05 14:29 029 8.3
2019-Dec-05 14:24 032 8.9
2019-Dec-05 14:19 337 8.9
2019-Dec-05 14:14 337 8.9
2019-Dec-05 14:09 337 8.9
2019-Dec-05 14:04 241 8.9
2019-Dec-05 13:59 241 8.9
2019-Dec-05 13:54 241 8.9
2019-Dec-05 13:49 241 8.9
2019-Dec-05 13:44 241 8.9
2019-Dec-05 13:39 236 8.9
2019-Dec-05 13:34 236 8.9
2019-Dec-05 13:29 240 8.9
2019-Dec-05 13:24 240 8.9
2019-Dec-05 13:19 240 8.9
2019-Dec-05 13:14 215 8.9
2019-Dec-05 13:09 213 8.9
2019-Dec-05 13:04 269 8.9
2019-Dec-05 12:59 241 0 gusting 2 8.9
2019-Dec-05 12:54 222 0 gusting 2 8.9
2019-Dec-05 12:49 194 0 gusting 2 8.9
2019-Dec-05 12:44 214 0 gusting 2 8.9
2019-Dec-05 12:39 240 0 gusting 2 9.4
2019-Dec-05 12:34 245 0 gusting 1 9.4
2019-Dec-05 12:29 207 9.4
2019-Dec-05 12:24 242 9.4
2019-Dec-05 12:19 243 0 gusting 2 9.4
2019-Dec-05 12:14 225 0 gusting 2 9.4
2019-Dec-05 12:09 210 0 gusting 2 9.4
2019-Dec-05 12:04 180 0 gusting 1 9.4
2019-Dec-05 11:59 224 0 gusting 2 9.4
2019-Dec-05 11:54 234 0 gusting 2 10.0
2019-Dec-05 11:49 206 10.0
2019-Dec-05 11:44 188 0 gusting 1 9.4
2019-Dec-05 11:39 216 9.4
2019-Dec-05 11:34 154 0 gusting 2 9.4
2019-Dec-05 11:29 224 0 gusting 2 10.0
2019-Dec-05 11:24 231 10.0
2019-Dec-05 11:19 210 0 gusting 2 9.4
2019-Dec-05 11:14 236 10.0
2019-Dec-05 11:09 217 9.4
2019-Dec-05 11:04 229 0 gusting 1 9.4
2019-Dec-05 10:59 240 0 gusting 2 9.4
2019-Dec-05 10:54 238 0 gusting 2 9.4
2019-Dec-05 10:49 164 9.4
2019-Dec-05 10:44 171 9.4
2019-Dec-05 10:39 150 9.4
2019-Dec-05 10:34 158 9.4
2019-Dec-05 10:29 199 9.4
2019-Dec-05 10:24 214 9.4
2019-Dec-05 10:19 220 9.4
2019-Dec-05 10:14 220 9.4
2019-Dec-05 10:09 209 0 gusting 1 8.9
2019-Dec-05 10:04 240 0 gusting 1 8.9
2019-Dec-05 09:59 219 8.9
2019-Dec-05 09:54 214 8.9
2019-Dec-05 09:49 263 0 gusting 1 8.9
2019-Dec-05 09:44 213 8.9
2019-Dec-05 09:39 206 8.9
2019-Dec-05 09:34 205 8.9
2019-Dec-05 09:29 218 0 gusting 2 8.9
2019-Dec-05 09:24 192 1 gusting 2 8.3
2019-Dec-05 09:19 174 0 gusting 1 8.3
2019-Dec-05 09:14 185 0 gusting 2 8.3
2019-Dec-05 09:09 193 0 gusting 2 8.3
2019-Dec-05 09:04 210 0 gusting 2 8.3
2019-Dec-05 08:59 209 1 gusting 2 8.3
2019-Dec-05 08:54 190 0 gusting 2 8.3
2019-Dec-05 08:49 035 8.3
2019-Dec-05 08:44 020 0 gusting 1 8.3
2019-Dec-05 08:39 191 8.3
2019-Dec-05 08:34 190 8.3
2019-Dec-05 08:29 190 8.3
2019-Dec-05 08:24 190 7.8
2019-Dec-05 08:19 190 7.8
2019-Dec-05 08:14 190 7.8
2019-Dec-05 08:09 189 0 gusting 0 7.8
2019-Dec-05 08:04 092 7.8
2019-Dec-05 07:59 067 7.2
2019-Dec-05 07:54 066 7.2
2019-Dec-05 07:49 067 7.2
2019-Dec-05 07:44 068 7.2
2019-Dec-05 07:39 068 7.2
2019-Dec-05 07:34 068 7.2
2019-Dec-05 07:29 068 7.2
2019-Dec-05 07:24 067 7.2
2019-Dec-05 07:19 067 7.2
2019-Dec-05 07:14 067 6.7
2019-Dec-05 07:09 067 6.7
2019-Dec-05 07:04 068 6.7
2019-Dec-05 06:59 056 0 gusting 1 6.7
2019-Dec-05 06:54 016 0 gusting 2 6.7
2019-Dec-05 06:49 039 0 gusting 2 6.7
2019-Dec-05 06:44 039 0 gusting 1 6.1
2019-Dec-05 06:39 041 0 gusting 2 6.1
2019-Dec-05 06:34 041 0 gusting 2 6.1
2019-Dec-05 06:24 035 0 gusting 2 6.1
2019-Dec-05 06:19 042 1 gusting 2 6.1
2019-Dec-05 06:14 035 1 gusting 2 6.1
2019-Dec-05 06:09 047 1 gusting 2 6.1
2019-Dec-05 06:04 051 1 gusting 4 6.1
2019-Dec-05 05:59 029 0 gusting 4 6.1
2019-Dec-05 05:54 032 1 gusting 4 6.1
2019-Dec-05 05:49 040 0 gusting 4 6.1
2019-Dec-05 05:44 047 1 gusting 4 6.1
2019-Dec-05 05:39 028 1 gusting 2 6.1
2019-Dec-05 05:34 032 1 gusting 2 6.1
2019-Dec-05 05:29 019 1 gusting 2 6.1
2019-Dec-05 05:24 026 0 gusting 2 6.1
2019-Dec-05 05:19 031 0 gusting 2 6.1
2019-Dec-05 05:14 017 0 gusting 2 6.1
2019-Dec-05 05:09 039 0 gusting 2 6.1
2019-Dec-05 05:04 027 0 gusting 1 6.1
2019-Dec-05 04:59 031 0 gusting 1 6.1
2019-Dec-05 04:54 012 0 gusting 1 6.1
2019-Dec-05 04:49 025 6.1
2019-Dec-05 04:44 036 0 gusting 2 6.1
2019-Dec-05 04:39 053 6.1
2019-Dec-05 04:34 053 5.6
2019-Dec-05 04:29 053 6.1
2019-Dec-05 04:24 053 0 gusting 0 6.1
2019-Dec-05 04:19 055 5.6
2019-Dec-05 04:14 057 5.6
2019-Dec-05 04:09 072 0 gusting 1 5.6
2019-Dec-05 04:04 060 0 gusting 1 5.6
2019-Dec-05 03:59 069 6.1
2019-Dec-05 03:54 069 6.1
2019-Dec-05 03:49 069 6.1
2019-Dec-05 03:44 069 6.1
2019-Dec-05 03:39 069 6.1
2019-Dec-05 03:34 069 6.1
2019-Dec-05 03:29 069 0 gusting 1 6.1
2019-Dec-05 03:24 057 0 gusting 2 6.1
2019-Dec-05 03:19 068 0 gusting 5 6.1
2019-Dec-05 03:14 059 2 gusting 5 6.1
2019-Dec-05 03:09 042 2 gusting 5 6.1
2019-Dec-05 03:04 054 1 gusting 4 6.1
2019-Dec-05 02:59 065 1 gusting 4 6.1
2019-Dec-05 02:54 048 2 gusting 5 6.1
2019-Dec-05 02:49 040 1 gusting 5 6.1
2019-Dec-05 02:44 045 2 gusting 6 6.1
2019-Dec-05 02:39 034 2 gusting 6 6.1
2019-Dec-05 02:34 040 3 gusting 6 6.1
2019-Dec-05 02:29 036 2 gusting 6 6.1
2019-Dec-05 02:24 045 2 gusting 6 6.1
2019-Dec-05 02:19 035 4 gusting 6 6.1
2019-Dec-05 02:14 033 4 gusting 6 6.1
2019-Dec-05 02:09 025 2 gusting 6 6.1
2019-Dec-05 02:04 047 2 gusting 6 6.1
2019-Dec-05 01:59 030 2 gusting 5 6.1
2019-Dec-05 01:54 024 1 gusting 5 6.1
2019-Dec-05 01:49 036 1 gusting 5 6.1
2019-Dec-05 01:44 027 1 gusting 4 6.1
2019-Dec-05 01:39 032 1 gusting 2 6.1
2019-Dec-05 01:34 040 0 gusting 4 6.1
2019-Dec-05 01:29 051 1 gusting 4 6.1
2019-Dec-05 01:19 033 1 gusting 6 6.7
2019-Dec-05 01:14 044 2 gusting 6 6.7
2019-Dec-05 01:09 034 3 gusting 6 6.7
2019-Dec-05 01:04 024 1 gusting 5 6.7
2019-Dec-05 00:59 020 2 gusting 5 6.7
2019-Dec-05 00:54 038 1 gusting 4 6.7
2019-Dec-05 00:49 018 0 gusting 2 6.7
2019-Dec-05 00:39 024 1 gusting 2 6.1
2019-Dec-05 00:34 030 0 gusting 2 6.1
2019-Dec-05 00:29 050 0 gusting 1 6.1
2019-Dec-05 00:24 063 0 gusting 1 6.1
2019-Dec-05 00:19 064 6.1
2019-Dec-05 00:14 064 6.1
2019-Dec-05 00:09 064 6.1
2019-Dec-05 00:04 064 0 gusting 1 6.1
2019-Dec-04 23:59 060 0 gusting 1 6.1
2019-Dec-04 23:54 061 0 gusting 1 6.1
2019-Dec-04 23:49 056 0 gusting 1 6.1
2019-Dec-04 23:44 060 0 gusting 1 6.1
2019-Dec-04 23:39 076 0 gusting 1 6.1
2019-Dec-04 23:34 081 6.1
2019-Dec-04 23:29 082 6.1
2019-Dec-04 23:24 082 6.1
2019-Dec-04 23:19 082 6.1
2019-Dec-04 23:14 082 6.1
2019-Dec-04 23:09 082 6.1
2019-Dec-04 23:04 082 6.1
2019-Dec-04 22:59 082 6.1
2019-Dec-04 22:54 082 6.1
2019-Dec-04 22:49 080 0 gusting 1 6.1
2019-Dec-04 22:44 094 6.1
2019-Dec-04 22:39 049 0 gusting 2 6.1
2019-Dec-04 22:34 049 1 gusting 2 6.1
2019-Dec-04 22:29 041 1 gusting 4 6.1
2019-Dec-04 22:24 038 1 gusting 4 6.1
2019-Dec-04 22:19 050 1 gusting 2 6.1
2019-Dec-04 22:14 036 0 gusting 2 6.1
2019-Dec-04 22:09 042 0 gusting 2 6.1
2019-Dec-04 22:04 047 0 gusting 2 6.1
2019-Dec-04 21:59 039 1 gusting 2 6.1
2019-Dec-04 21:54 035 0 gusting 2 5.6
2019-Dec-04 21:49 017 0 gusting 1 5.6
2019-Dec-04 21:44 027 0 gusting 1 5.6
2019-Dec-04 21:39 049 6.1
2019-Dec-04 21:34 049 5.6
2019-Dec-04 21:29 049 6.1
2019-Dec-04 21:24 049 6.1
2019-Dec-04 21:19 049 5.6
2019-Dec-04 21:14 049 5.6
2019-Dec-04 21:09 049 6.1
2019-Dec-04 21:04 049 6.1
2019-Dec-04 20:59 049 6.1
2019-Dec-04 20:54 049 6.1
2019-Dec-04 20:49 049 6.1
2019-Dec-04 20:44 049 6.1
2019-Dec-04 20:39 049 6.1
2019-Dec-04 20:34 049 6.1
2019-Dec-04 20:29 049 6.1
2019-Dec-04 20:24 049 6.1
2019-Dec-04 20:19 049 6.1
2019-Dec-04 20:14 049 6.1
2019-Dec-04 20:09 049 6.1
2019-Dec-04 20:04 049 6.1
2019-Dec-04 19:59 049 6.1
2019-Dec-04 19:54 049 6.1
2019-Dec-04 19:49 049 6.1
2019-Dec-04 19:44 049 6.1
2019-Dec-04 19:39 049 6.1
2019-Dec-04 19:34 049 0 gusting 1 6.1
2019-Dec-04 19:29 049 0 gusting 1 6.1
2019-Dec-04 19:24 051 0 gusting 1 6.1
2019-Dec-04 19:19 054 0 gusting 1 6.1
2019-Dec-04 19:14 038 0 gusting 2 6.1
2019-Dec-04 19:09 050 0 gusting 2 6.1
2019-Dec-04 19:04 042 0 gusting 2 6.1
2019-Dec-04 18:59 041 0 gusting 2 6.1
2019-Dec-04 18:54 031 0 gusting 1 6.1
2019-Dec-04 18:49 018 0 gusting 1 6.1
2019-Dec-04 18:44 034 6.1
2019-Dec-04 18:39 026 6.1
2019-Dec-04 18:34 025 0 gusting 1 6.1
2019-Dec-04 18:29 041 0 gusting 1 6.1
2019-Dec-04 18:24 044 6.1
2019-Dec-04 18:19 043 6.1
2019-Dec-04 18:14 043 6.1
2019-Dec-04 18:09 043 6.1
2019-Dec-04 18:04 043 6.1
2019-Dec-04 17:59 043 6.1
2019-Dec-04 17:54 043 6.1
2019-Dec-04 17:49 043 6.1
2019-Dec-04 17:44 043 0 gusting 0 6.1
2019-Dec-04 17:39 044 0 gusting 1 6.1
2019-Dec-04 17:34 038 6.1
2019-Dec-04 17:29 037 0 gusting 1 6.1
2019-Dec-04 17:24 037 6.1
2019-Dec-04 17:19 037 0 gusting 1 6.1
2019-Dec-04 17:14 051 0 gusting 0 6.1
2019-Dec-04 17:09 051 0 gusting 0 6.1
2019-Dec-04 17:04 052 6.1
2019-Dec-04 16:59 058 0 gusting 1 6.1
2019-Dec-04 16:54 061 6.1
2019-Dec-04 16:49 066 6.1
2019-Dec-04 16:44 037 0 gusting 2 6.1
2019-Dec-04 16:39 034 0 gusting 2 6.1
2019-Dec-04 16:34 059 1 gusting 6 6.1
2019-Dec-04 16:29 039 2 gusting 6 6.1
2019-Dec-04 16:24 039 1 gusting 6 6.1
2019-Dec-04 16:19 035 3 gusting 6 6.1
2019-Dec-04 16:14 042 2 gusting 6 6.1
2019-Dec-04 16:09 025 2 gusting 7 6.1
2019-Dec-04 16:04 036 2 gusting 7 6.1
2019-Dec-04 15:59 048 3 gusting 6 6.1
2019-Dec-04 15:54 031 2 gusting 6 6.1
2019-Dec-04 15:49 031 0 gusting 6 6.1
2019-Dec-04 15:44 014 0 gusting 5 6.1
2019-Dec-04 15:39 041 5.6
2019-Dec-04 15:34 027 5.6
2019-Dec-04 15:29 033 5.6
2019-Dec-04 15:24 033 6.1
2019-Dec-04 15:19 033 6.1
2019-Dec-04 15:14 033 6.1
2019-Dec-04 15:09 033 6.1
2019-Dec-04 15:04 033 6.1